Lid_Strength_Index
3 2 3 2 2 2 2 2 2 2 2 2 2 2 2 1 1 0 -0 -0 0 -0 1 1 2 2 2 2 1 2 2 2 1 3 3 2 2 2 2 1 1 1 1
5 3 3 3 2 2 2 2 2 1 1 1 1 1 1 1 0 -0 -0 -0 0 1 1 2 2 2 1 2 1 2 2 2 2 3 3 5 4 3 2 3 2 2 1
5 4 4 3 3 3 2 2 2 1 1 1 1 1 1 1 1 1 1 1 1 2 2 2 2 2 2 2 2 2 2 3 2 2 3 5 5 4 3 3 3 2 2
5 4 4 4 3 3 2 2 1 1 1 1 1 2 2 3 2 1 1 1 1 2 2 3 3 3 2 2 2 2 3 3 4 2 2 2 3 4 6 4 3 3 2
5 4 4 3 3 2 2 2 2 1 1 1 1 2 2 1 1 1 1 1 1 2 2 3 3 4 3 2 2 2 2 2 2 3 3 3 3 2 3 5 5 3 2
5 4 4 3 3 2 2 3 3 2 1 1 1 2 2 2 2 2 2 1 1 1 2 2 3 3 3 4 4 3 2 2 2 2 2 3 3 4 4 5 4 4 4
5 5 5 4 4 3 3 3 3 3 2 1 1 1 1 1 2 2 2 2 2 2 2 2 2 2 3 3 3 3 3 2 2 2 3 2 2 2 3 3 4 4 3
6 5 4 4 4 3 3 3 3 4 3 2 1 1 1 2 2 2 2 1 1 1 2 2 2 2 2 2 3 3 3 3 3 2 2 2 2 2 2 3 3 4 4
5 5 4 4 3 3 3 3 4 4 4 2 2 1 1 1 1 1 1 1 1 1 2 2 2 2 2 2 2 3 3 4 3 3 2 3 2 2 2 2 2 3 5
6 5 4 4 3 3 4 3 3 3 3 2 1 1 1 1 1 1 1 1 1 1 1 1 2 2 2 2 2 2 2 3 3 3 3 3 3 3 2 3 3 3 3
6 5 5 4 3 3 3 4 3 3 3 2 1 1 1 1 0 1 1 1 1 2 2 2 2 2 1 1 2 2 2 3 3 2 3 3 2 2 3 3 3 4 4
8 5 5 4 4 4 4 4 4 4 3 3 2 2 1 1 1 1 0 0 1 1 2 2 2 1 1 0 1 1 1 2 2 2 2 2 2 2 2 2 3 2 1
10 9 8 7 6 5 5 6 5 4 3 3 3 3 3 2 1 1 1 1 0 0 1 1 2 1 1 0 1 1 1 1 1 1 1 1 1 1 2 2 1 1 2
12 12 11 11 10 10 10 9 8 7 4 3 3 4 3 3 3 2 1 0 0 1 1 1 0 0 1 1 1 1 1 1 1 0 1 1 1 1 1 1 1 1 2
14 13 13 13 12 11 10 10 10 9 9 9 9 9 8 7 6 4 3 2 2 1 1 1 0 0 0 1 1 1 2 1 1 1 0 0 1 3 2 1 1 1 2
14 15 14 14 14 14 13 12 12 12 11 12 12 11 10 10 9 8 8 7 7 6 4 3 3 3 6 13 12 9 2 1 1 1 1 0 4 4 8 7 7 3 2
14 15 15 15 14 14 13 13 13 13 13 14 13 13 12 11 11 10 10 10 9 8 8 9 9 11 14 14 13 13 9 5 3 3 3 2 2 4 2 6 10 9 9
14 15 15 14 15 14 14 14 14 15 15 15 14 13 13 12 12 11 10 10 9 9 11 12 13 12 13 14 14 14 10 8 6 4 4 4 4 4 5 4 4 5 5
15 15 15 15 15 14 14 15 16 15 16 16 15 14 14 14 13 13 12 11 11 12 13 14 14 14 15 14 14 13 10 8 7 12 13 14 13 13 13 10 7 5 14
15 15 15 15 15 15 15 16 16 17 17 17 17 15 15 15 15 14 14 13 13 14 14 15 15 15 15 15 15 13 10 10 12 14 15 14 14 14 14 12 11 14 16
15 15 16 16 16 16 16 17 17 18 17 17 17 16 16 16 15 15 14 14 15 15 16 16 15 16 16 15 15 15 14 14 15 15 15 15 14 14 14 15 16 16 17
16 16 16 17 16 16 16 17 18 17 17 17 18 17 17 17 16 16 15 15 15 15 15 16 16 16 16 16 15 15 15 15 16 17 16 16 15 15 15 15 16 17 18
16 15 16 17 16 16 16 17 17 17 17 17 17 17 17 17 16 16 16 15 15 15 15 16 16 15 14 14 15 14 15 15 15 15 16 16 16 16 16 16 17 17 17
17 17 17 17 17 17 16 16 16 16 16 17 17 17 16 16 15 15 15 16 16 16 16 15 15 15 14 14 13 14 14 15 15 15 16 16 17 17 17 17 17 17 17
18 17 18 18 18 17 17 16 16 16 16 17 17 17 17 17 17 17 16 16 15 15 15 15 15 15 15 15 14 14 15 15 16 16 16 16 16 17 17 18 18 18 17
18 18 18 18 18 18 18 17 16 16 16 17 17 17 16 16 16 17 17 16 15 15 15 15 14 15 15 15 15 16 16 17 17 16 17 17 17 18 18 18 18 18 19